Satellite-Ground Cal/Val Region Overpasses Predictions

Prediction of Satellite NPP Overpassing Cal/Val Region: PacNW

Region Location: (Latitude: 10.00, Longitude: 139.50) to (Latitude: 22.70, Longitude: 165.60).

Table of predicted overpasses for the next 14.0 days since TLE Epoch: 4/2/2022
Interval Starting Time Starting Location Ending Time Ending Location
1 04/02/2022 15:49:27 ( 22.69, 147.61) 04/02/2022 15:53:03 ( 10.01, 144.59)
2 04/03/2022 02:58:33 ( 10.05, 155.12) 04/03/2022 03:02:08 ( 22.68, 152.12)
3 04/03/2022 15:30:26 ( 22.66, 152.36) 04/03/2022 15:34:01 ( 10.04, 149.35)
4 04/04/2022 02:39:30 ( 10.03, 159.88) 04/04/2022 02:43:05 ( 22.66, 156.88)
5 04/04/2022 15:11:23 ( 22.68, 157.12) 04/04/2022 15:14:58 ( 10.06, 154.12)
6 04/05/2022 02:20:28 ( 10.01, 164.65) 04/05/2022 02:24:04 ( 22.69, 161.63)
7 04/05/2022 14:52:21 ( 22.70, 161.88) 04/05/2022 14:55:57 ( 10.02, 158.87)
8 04/06/2022 03:42:55 ( 10.00, 144.03) 04/06/2022 03:46:31 ( 22.68, 141.02)
9 04/06/2022 14:34:31 ( 18.43, 165.59) 04/06/2022 14:36:54 ( 10.03, 163.63)
10 04/06/2022 16:14:49 ( 22.65, 141.25) 04/06/2022 16:16:52 ( 15.43, 139.51)
11 04/07/2022 03:23:54 ( 10.04, 148.78) 04/07/2022 03:27:29 ( 22.67, 145.78)
12 04/07/2022 15:55:47 ( 22.66, 146.02) 04/07/2022 15:59:22 ( 10.04, 143.02)
13 04/08/2022 03:04:51 ( 10.03, 153.54) 04/08/2022 03:08:26 ( 22.65, 150.54)
14 04/08/2022 15:36:44 ( 22.68, 150.78) 04/08/2022 15:40:20 ( 10.00, 147.76)
15 04/09/2022 02:45:49 ( 10.01, 158.31) 04/09/2022 02:49:25 ( 22.69, 155.29)
16 04/09/2022 15:17:42 ( 22.70, 155.54) 04/09/2022 15:21:18 ( 10.02, 152.53)
17 04/10/2022 02:26:48 ( 10.06, 163.06) 04/10/2022 02:30:23 ( 22.68, 160.05)
18 04/10/2022 14:58:40 ( 22.65, 160.29) 04/10/2022 15:02:15 ( 10.03, 157.29)
19 04/11/2022 02:10:26 ( 19.50, 165.60) 04/11/2022 02:11:20 ( 22.67, 164.82)
20 04/11/2022 03:49:15 ( 10.05, 142.44) 04/11/2022 03:52:45 ( 22.38, 139.51)
21 04/11/2022 14:39:38 ( 22.66, 165.05) 04/11/2022 14:43:13 ( 10.04, 162.05)
22 04/11/2022 16:21:08 ( 22.66, 139.68) 04/11/2022 16:21:20 ( 21.95, 139.50)
23 04/12/2022 03:30:13 ( 10.04, 147.20) 04/12/2022 03:33:48 ( 22.66, 144.20)
24 04/12/2022 16:02:05 ( 22.67, 144.44) 04/12/2022 16:05:40 ( 10.05, 141.44)
25 04/13/2022 03:11:10 ( 10.03, 151.97) 04/13/2022 03:14:45 ( 22.65, 148.96)
26 04/13/2022 15:43:03 ( 22.68, 149.20) 04/13/2022 15:46:38 ( 10.06, 146.20)
27 04/14/2022 02:52:08 ( 10.02, 156.73) 04/14/2022 02:55:44 ( 22.70, 153.71)
28 04/14/2022 15:24:00 ( 22.69, 153.96) 04/14/2022 15:27:36 ( 10.01, 150.95)
29 04/15/2022 02:33:05 ( 10.01, 161.49) 04/15/2022 02:36:41 ( 22.69, 158.47)
30 04/15/2022 15:04:58 ( 22.70, 158.72) 04/15/2022 15:08:34 ( 10.02, 155.71)
